Temp
45 45 44 44 44 44 43 42 43 43 44 44 44 44 44 44 44 42 42 42 41 43 42 42 44 46 44 42 40 40 41 39 43 34 33 33 33 35 35 33 35 35 39
42 42 42 43 43 42 42 42 42 42 42 42 43 42 43 42 42 41 42 43 41 42 42 41 42 43 41 42 39 40 40 41 42 39 30 30 32 34 34 32 34 35 34
41 40 41 40 39 39 39 40 40 40 40 41 41 41 41 42 41 41 40 41 41 41 42 42 42 40 39 40 38 38 38 41 39 36 30 30 30 33 30 31 31 31 34
39 37 36 35 36 36 37 37 37 37 37 38 39 38 39 40 40 39 39 40 40 41 41 41 42 41 40 41 39 38 38 36 37 36 31 30 30 30 31 29 27 28 29
35 35 34 34 34 34 33 34 34 34 35 36 36 37 37 38 40 38 38 38 37 39 40 40 40 40 40 42 42 38 37 35 34 35 33 29 28 27 28 29 28 28 26
32 32 32 32 31 31 31 31 31 32 33 33 34 34 35 37 40 40 40 38 38 38 37 39 39 37 38 40 41 43 40 37 36 36 34 33 31 31 31 27 27 23 20
30 30 29 29 29 29 30 30 30 30 31 31 32 32 32 34 38 39 39 37 36 37 37 37 37 39 36 36 38 40 41 41 43 39 36 36 35 33 31 26 26 25 26
28 28 28 28 28 28 28 28 28 28 28 29 30 31 31 33 37 38 38 36 35 36 36 36 36 37 38 34 36 35 36 37 38 40 38 39 38 33 31 30 27 25 21
26 26 26 26 26 26 26 26 26 27 27 28 30 30 29 31 35 36 36 34 34 34 35 36 36 35 38 39 33 34 34 34 37 40 39 37 36 34 32 28 21 20 16
24 25 25 25 24 23 24 24 26 26 27 28 28 29 29 29 33 35 35 34 32 33 34 35 36 36 37 38 35 33 31 32 29 29 31 31 32 31 34 29 26 23 17
23 22 22 22 21 23 23 23 23 24 25 24 26 28 29 29 31 34 35 33 31 31 31 33 35 38 38 37 37 32 32 35 28 26 26 25 25 26 26 23 27 28 19
19 18 18 18 20 22 20 20 21 21 21 22 23 24 27 29 30 32 33 34 34 30 30 32 33 36 36 36 35 35 35 33 26 24 21 20 19 18 18 18 19 20 22
14 13 15 17 18 19 17 18 17 19 19 20 21 22 23 26 27 30 31 32 32 30 31 32 35 35 36 35 35 35 32 26 24 21 20 18 18 16 16 14 15 17 18
10 13 14 15 14 15 16 17 16 16 17 19 19 19 21 22 24 26 27 27 28 29 30 30 31 34 35 34 30 32 31 24 23 21 19 17 15 14 12 13 12 12 11
11 12 12 13 11 12 14 14 16 19 20 20 19 21 19 19 22 28 28 26 26 28 29 28 29 29 28 28 28 28 25 21 19 17 15 14 13 13 11 13 12 10 8
7 9 9 9 9 10 11 12 19 22 24 25 26 24 22 25 27 27 28 29 29 30 26 26 27 27 26 26 23 18 19 18 18 17 15 14 13 12 11 11 11 10 8
2 5 6 7 8 8 9 9 8 14 20 22 22 23 23 24 24 25 27 26 26 26 22 24 25 25 25 25 19 18 17 18 18 16 15 14 13 12 10 10 9 9 8
-1 3 4 6 7 7 7 8 9 8 8 9 16 18 20 21 21 24 23 21 13 16 16 19 21 24 24 21 18 18 17 16 16 15 14 14 13 11 10 9 8 7 7
-1 2 4 6 6 6 7 7 8 8 7 7 8 13 13 16 20 19 19 10 9 9 11 12 17 22 23 21 19 19 16 15 15 14 13 12 12 11 10 9 8 8 6
-4 1 2 1 2 3 5 4 5 5 5 5 6 6 7 10 8 6 7 8 7 7 7 9 11 19 20 19 18 16 15 14 13 13 12 12 11 11 9 8 7 6 5
-3 -2 -1 -4 -4 1 2 2 3 3 3 3 4 6 14 9 3 3 4 5 5 5 5 6 9 11 17 17 16 15 14 13 13 12 11 10 10 8 9 8 7 6 4
-8 -6 -7 -6 -2 -1 -0 0 1 0 0 0 1 3 11 3 3 3 3 4 4 4 5 5 6 8 9 10 14 14 13 12 12 11 10 9 8 8 7 6 5 3 2
-11 -11 -7 -9 -10 -4 -3 -2 -2 -1 -1 -1 -1 0 1 2 2 2 3 4 4 4 4 4 4 4 6 6 7 9 10 10 10 10 8 7 6 6 5 4 2 1 -0
-15 -14 -11 -8 -7 -5 -5 -4 -3 -3 -3 -2 -2 -1 0 2 2 2 3 4 4 3 4 3 3 2 2 3 4 5 6 7 8 8 8 6 4 4 3 2 1 -0 -1
-17 -13 -13 -11 -8 -7 -6 -6 -4 -4 -3 -2 -2 -1 0 1 2 3 3 4 3 3 3 3 2 1 1 1 1 1 3 4 4 6 5 5 3 2 1 1 -0 -1 -3
-14 -15 -14 -13 -13 -10 -7 -6 -5 -4 -4 -3 -2 -1 -0 1 2 3 3 3 3 3 3 3 2 1 0 1 0 5 4 6 3 3 2 2 1 -1 -1 -2 -3 -4 -5
MSLP
1026.11 1026.00 1025.63 1025.33 1024.83 1024.46 1024.37 1024.17 1023.83 1022.95 1022.37 1021.96 1021.31 1020.99 1020.59 1020.16 1019.81 1019.51 1019.19 1019.20 1018.71 1018.09 1017.53 1017.07 1016.56 1016.57 1016.60 1016.50 1016.71 1017.02 1016.94 1017.30 1017.81 1018.09 1018.47 1018.74 1019.36 1019.70 1020.27 1020.97 1021.32 1021.45 1021.45
1026.83 1026.65 1026.44 1026.03 1025.60 1025.28 1024.70 1024.32 1023.69 1023.15 1022.69 1021.93 1021.71 1021.28 1020.90 1020.38 1019.79 1019.33 1018.92 1018.58 1018.20 1017.66 1017.21 1016.96 1016.26 1016.35 1015.61 1015.40 1015.59 1015.48 1016.00 1016.07 1017.02 1017.65 1018.29 1018.83 1018.81 1019.14 1019.60 1020.39 1020.86 1021.29 1021.54
1027.68 1027.16 1026.88 1026.43 1025.89 1025.27 1024.59 1024.47 1024.02 1023.76 1022.93 1022.37 1021.92 1021.36 1020.83 1020.42 1019.65 1019.04 1018.60 1018.01 1017.63 1017.02 1016.53 1016.21 1015.53 1015.39 1015.13 1015.19 1015.03 1014.80 1014.90 1015.05 1015.00 1016.28 1017.41 1018.13 1018.69 1018.96 1019.13 1019.92 1020.48 1021.08 1021.43
1027.99 1027.48 1027.13 1026.76 1026.26 1025.87 1025.62 1025.39 1024.76 1023.72 1023.02 1022.49 1022.03 1021.37 1020.73 1020.06 1019.54 1018.87 1018.23 1017.69 1016.97 1016.46 1015.77 1015.35 1014.93 1014.52 1014.18 1013.97 1014.25 1014.05 1014.51 1014.60 1014.52 1014.54 1015.61 1016.76 1017.78 1018.50 1018.80 1018.85 1020.15 1020.69 1021.24
1027.85 1027.32 1027.25 1026.97 1026.77 1026.47 1025.75 1025.02 1024.21 1023.85 1023.35 1022.78 1021.94 1021.08 1020.54 1019.82 1019.15 1018.56 1018.03 1017.27 1016.43 1015.39 1014.74 1014.43 1013.93 1013.52 1013.05 1012.81 1013.11 1013.03 1013.47 1013.75 1013.95 1014.01 1014.15 1015.11 1016.12 1017.00 1017.42 1017.57 1018.48 1020.00 1020.76
1028.19 1027.60 1027.32 1027.08 1026.96 1026.51 1025.71 1025.09 1024.39 1023.97 1023.33 1022.77 1021.91 1021.06 1020.19 1019.56 1019.06 1018.41 1017.90 1016.80 1016.05 1015.26 1014.30 1013.31 1012.92 1012.37 1012.03 1011.87 1011.61 1011.71 1011.88 1012.09 1012.46 1012.63 1012.64 1012.81 1013.47 1014.25 1015.62 1016.78 1017.02 1019.07 1020.45
1028.10 1027.97 1027.85 1027.64 1027.44 1026.56 1025.98 1025.31 1024.67 1024.19 1023.48 1022.94 1022.31 1021.24 1020.24 1019.69 1018.74 1018.13 1017.62 1016.61 1015.48 1014.49 1013.84 1012.92 1011.98 1011.43 1011.29 1011.16 1010.79 1010.69 1010.53 1010.35 1010.39 1010.70 1010.94 1010.71 1011.12 1011.95 1013.24 1014.87 1015.73 1016.77 1017.70
1028.90 1028.80 1029.06 1028.77 1027.82 1026.85 1026.53 1025.79 1025.19 1024.59 1023.76 1023.35 1022.37 1021.58 1020.41 1019.73 1018.85 1018.21 1017.22 1016.20 1015.02 1013.92 1013.17 1012.36 1011.53 1010.50 1010.34 1010.41 1010.32 1009.82 1009.33 1009.30 1009.33 1009.40 1009.50 1009.73 1009.99 1011.20 1011.88 1012.61 1013.78 1015.86 1017.72
1030.14 1029.95 1029.58 1028.81 1028.09 1027.60 1027.21 1026.52 1025.61 1025.21 1024.32 1022.97 1022.31 1021.31 1020.80 1019.43 1018.74 1018.03 1016.96 1015.80 1014.57 1013.46 1012.53 1011.70 1010.93 1010.05 1009.33 1009.29 1009.38 1009.11 1008.67 1008.06 1008.47 1008.45 1008.48 1009.02 1009.77 1010.70 1011.36 1012.39 1013.78 1015.18 1016.87
1030.90 1030.63 1029.80 1029.07 1028.60 1028.23 1027.51 1026.83 1026.49 1025.67 1024.09 1023.06 1022.13 1021.49 1020.70 1019.26 1018.64 1017.74 1016.95 1015.74 1014.50 1013.25 1011.92 1010.99 1010.14 1009.41 1008.59 1008.32 1008.17 1008.05 1007.80 1007.24 1007.91 1008.03 1008.30 1008.95 1009.04 1009.96 1010.70 1011.39 1012.06 1012.97 1014.36
1031.51 1030.54 1029.93 1029.62 1029.08 1028.82 1027.88 1027.44 1026.74 1025.56 1024.53 1023.09 1021.96 1021.26 1020.52 1019.65 1018.27 1017.45 1016.63 1015.69 1014.86 1013.21 1011.89 1010.46 1009.51 1008.68 1007.83 1007.37 1007.26 1007.09 1006.65 1006.77 1007.11 1007.64 1007.93 1008.54 1009.06 1009.60 1010.05 1011.93 1012.55 1012.07 1012.56
1031.40 1030.56 1030.42 1030.03 1029.43 1029.06 1028.40 1027.61 1026.80 1025.87 1024.49 1023.25 1022.18 1020.86 1020.12 1019.25 1018.47 1017.29 1016.39 1015.55 1014.54 1013.45 1011.69 1010.18 1008.99 1008.10 1007.21 1006.42 1006.10 1005.78 1005.74 1005.99 1006.57 1007.26 1007.87 1008.32 1008.81 1009.78 1010.72 1011.43 1013.18 1012.89 1012.78
1031.66 1031.47 1030.99 1030.43 1030.02 1029.50 1028.61 1027.82 1026.97 1025.78 1024.76 1023.74 1022.69 1021.28 1019.69 1018.89 1018.11 1017.22 1016.19 1014.96 1013.85 1012.81 1011.62 1009.97 1008.27 1007.06 1006.09 1005.17 1004.74 1004.74 1004.92 1005.48 1006.21 1006.93 1007.60 1008.37 1008.94 1009.56 1010.86 1011.90 1012.98 1013.39 1013.75
1032.40 1031.92 1031.45 1030.89 1030.27 1029.63 1029.01 1028.18 1027.11 1026.10 1025.22 1024.21 1022.99 1021.76 1020.31 1018.89 1017.90 1016.91 1015.73 1014.48 1013.22 1011.94 1010.62 1008.84 1007.60 1006.20 1005.24 1004.48 1004.16 1003.99 1004.06 1004.84 1005.69 1006.66 1007.73 1008.76 1009.58 1010.27 1011.29 1012.01 1012.84 1013.73 1014.71
1032.95 1032.37 1031.78 1031.33 1030.88 1030.10 1029.19 1028.26 1027.23 1026.36 1025.45 1024.12 1023.29 1022.19 1020.95 1019.32 1018.18 1017.19 1015.95 1014.44 1013.09 1011.44 1009.59 1007.74 1006.32 1005.11 1004.41 1003.99 1003.72 1003.71 1004.01 1004.98 1005.79 1006.70 1007.79 1008.59 1009.49 1010.41 1011.52 1012.45 1013.40 1013.97 1014.66
1033.49 1032.86 1032.33 1031.74 1030.93 1030.01 1028.96 1027.74 1026.98 1025.82 1024.85 1024.02 1023.09 1022.36 1021.09 1020.36 1018.62 1017.17 1015.69 1014.16 1012.76 1011.04 1008.89 1006.93 1005.23 1004.38 1003.94 1003.73 1003.67 1004.20 1004.37 1004.86 1005.48 1006.21 1007.29 1008.09 1009.13 1009.87 1010.88 1012.07 1013.12 1013.64 1014.58
1034.23 1033.48 1032.61 1031.80 1030.94 1030.13 1029.20 1028.13 1026.53 1024.86 1024.69 1023.79 1023.03 1022.21 1021.34 1020.01 1018.70 1017.32 1015.57 1014.13 1012.76 1011.18 1009.70 1007.66 1006.21 1004.90 1003.95 1003.64 1003.76 1003.89 1004.23 1004.74 1005.27 1005.99 1006.94 1007.76 1008.95 1009.85 1010.87 1012.03 1012.75 1013.53 1014.78
1034.01 1033.30 1032.60 1031.79 1031.07 1030.24 1029.43 1028.48 1027.59 1026.36 1024.75 1023.14 1022.84 1022.38 1021.04 1020.09 1018.84 1017.25 1016.14 1014.63 1013.30 1011.91 1010.74 1009.09 1007.22 1005.61 1004.45 1004.04 1003.90 1004.03 1004.54 1005.05 1005.54 1006.13 1006.95 1007.69 1008.56 1009.56 1010.61 1011.59 1012.62 1013.49 1014.43
1033.88 1033.08 1032.36 1031.58 1030.87 1030.15 1029.28 1028.43 1027.64 1026.71 1025.66 1024.38 1022.75 1021.10 1021.04 1019.91 1018.70 1018.06 1017.07 1016.35 1014.91 1013.46 1011.95 1010.21 1008.34 1006.19 1004.74 1004.17 1004.12 1004.28 1004.65 1005.24 1005.82 1006.51 1007.24 1007.83 1008.58 1009.37 1010.36 1011.24 1012.24 1013.23 1014.31
1033.55 1032.81 1032.17 1031.51 1030.77 1030.04 1029.29 1028.51 1027.62 1026.75 1025.81 1024.87 1023.96 1023.17 1021.81 1020.18 1019.08 1018.24 1017.55 1016.71 1015.66 1014.50 1013.07 1011.20 1009.38 1007.20 1005.78 1005.06 1004.78 1004.84 1005.22 1005.78 1006.19 1006.73 1007.40 1008.02 1008.67 1009.33 1010.11 1010.96 1011.98 1013.08 1014.18
1033.24 1032.57 1032.02 1031.49 1030.95 1030.19 1029.42 1028.58 1027.77 1027.09 1026.31 1025.30 1024.31 1023.44 1022.22 1021.17 1020.45 1019.52 1018.41 1017.38 1016.38 1015.25 1013.98 1012.38 1010.59 1009.13 1007.15 1006.23 1005.92 1005.77 1005.92 1006.31 1006.71 1007.00 1007.51 1008.09 1008.69 1009.44 1010.23 1011.11 1012.06 1013.09 1014.15
1033.11 1032.69 1032.14 1031.66 1030.74 1029.97 1029.34 1028.70 1028.03 1027.28 1026.42 1025.46 1024.24 1023.20 1022.20 1021.60 1020.70 1019.74 1018.81 1017.79 1016.74 1015.75 1014.66 1013.41 1011.92 1010.72 1009.57 1008.32 1007.22 1006.83 1006.78 1006.98 1007.27 1007.58 1007.99 1008.48 1009.07 1009.80 1010.58 1011.38 1012.28 1013.21 1014.16
1033.14 1032.70 1032.04 1031.34 1030.67 1029.83 1029.15 1028.61 1027.93 1027.13 1026.20 1025.31 1024.41 1023.29 1022.24 1021.35 1020.55 1019.72 1018.72 1017.79 1016.83 1015.81 1014.85 1013.89 1012.85 1011.78 1010.91 1010.11 1009.23 1008.44 1007.97 1007.95 1007.98 1008.16 1008.52 1009.03 1009.58 1010.19 1010.89 1011.61 1012.40 1013.28 1014.13
1032.54 1032.26 1032.01 1031.40 1030.68 1030.03 1029.35 1028.46 1027.67 1026.88 1026.07 1025.06 1024.10 1023.13 1022.18 1021.26 1020.40 1019.51 1018.56 1017.65 1016.79 1015.92 1015.00 1014.23 1013.52 1012.77 1011.92 1011.31 1010.77 1010.15 1009.56 1009.14 1008.87 1008.94 1009.20 1009.50 1009.97 1010.62 1011.17 1011.85 1012.53 1013.24 1014.07
1032.23 1032.00 1031.64 1031.20 1030.61 1030.00 1029.23 1028.36 1027.46 1026.59 1025.66 1024.67 1023.75 1022.90 1021.97 1021.04 1020.07 1019.17 1018.31 1017.53 1016.71 1015.92 1015.07 1014.33 1013.73 1013.19 1012.58 1012.01 1011.64 1011.22 1010.73 1010.29 1010.03 1009.89 1009.94 1010.12 1010.57 1011.00 1011.50 1012.11 1012.75 1013.48 1014.19
1032.10 1031.83 1031.39 1030.76 1030.22 1029.55 1028.86 1027.96 1027.08 1026.27 1025.32 1024.29 1023.45 1022.62 1021.74 1020.73 1019.83 1018.97 1018.14 1017.36 1016.66 1015.87 1015.11 1014.39 1013.80 1013.29 1012.78 1012.29 1011.90 1011.39 1011.20 1010.92 1010.84 1010.79 1010.76 1010.84 1011.17 1011.57 1011.92 1012.34 1012.97 1013.63 1014.21
Wind_Speed
11 11 10 10 10 8 7 6 7 7 8 9 9 10 10 10 8 7 8 9 9 10 7 8 12 9 8 6 6 5 8 5 9 1 1 3 9 10 8 6 5 4 6
7 7 7 8 9 10 10 11 11 11 10 9 10 9 9 9 8 8 11 10 10 12 12 10 14 7 11 10 7 11 10 7 7 9 3 3 5 10 9 9 6 4 4
5 6 7 9 9 10 12 12 13 12 12 11 10 10 11 11 11 9 9 12 12 13 13 13 15 9 12 9 9 10 9 8 9 6 4 2 1 7 6 5 6 4 4
4 4 6 8 9 9 9 9 10 11 11 13 12 12 11 11 11 11 11 12 13 14 14 14 15 14 16 13 11 12 10 9 9 9 6 5 3 5 6 9 6 3 5
5 6 9 9 9 9 10 11 12 11 11 12 14 13 13 11 9 12 12 13 15 17 16 15 15 17 22 19 11 12 11 10 8 9 7 5 6 7 14 9 8 7 3
6 9 9 11 11 11 12 12 11 12 14 14 15 16 16 10 20 22 19 16 16 16 18 16 15 16 19 25 26 27 17 14 15 11 11 12 15 11 12 10 10 8 7
11 11 11 12 12 12 12 13 14 15 15 16 16 16 17 16 24 25 25 15 17 17 17 17 16 12 14 14 20 26 27 27 26 15 15 17 14 15 15 14 12 11 6
11 11 11 11 12 13 13 14 15 14 15 15 15 16 17 15 27 27 28 19 17 19 18 18 17 19 17 13 14 14 17 17 20 16 16 13 10 12 16 15 16 9 5
11 11 11 12 13 14 14 15 15 15 15 14 15 17 18 18 27 29 25 17 17 20 18 18 17 19 22 23 15 17 16 15 16 21 18 15 13 21 18 10 11 13 5
10 11 11 12 12 13 13 14 13 14 15 13 15 14 17 19 24 28 25 14 18 16 19 18 22 21 26 25 16 16 16 16 11 8 8 11 15 16 27 17 14 15 7
10 10 11 12 12 12 12 12 14 14 14 14 16 15 16 15 19 30 31 17 13 15 14 15 15 27 26 27 26 14 17 14 13 9 8 7 8 9 8 2 9 10 10
9 11 11 11 10 10 13 12 14 13 14 15 16 16 12 15 21 26 32 30 29 17 17 15 16 30 31 30 24 22 24 17 9 8 8 7 9 7 7 7 3 5 4
9 9 10 11 10 11 12 12 11 11 11 12 12 14 15 13 14 28 30 33 32 21 16 25 36 33 32 27 27 24 20 8 8 8 8 6 6 8 10 9 8 10 10
8 10 10 10 11 11 9 8 9 9 10 11 12 13 14 15 15 15 16 17 24 21 24 18 23 29 29 22 12 14 10 8 8 6 5 6 7 7 7 5 6 7 6
8 8 9 8 9 10 8 8 9 9 11 12 11 12 13 15 16 30 29 20 19 23 28 16 15 12 10 8 7 6 5 8 8 8 9 8 9 8 7 6 6 6 4
8 7 7 7 8 8 9 10 15 19 22 22 23 19 13 25 33 36 37 38 39 39 19 16 13 11 9 8 4 3 6 10 9 9 9 9 9 9 9 8 8 5 6
5 8 7 7 7 8 9 10 13 15 21 21 22 25 27 28 33 34 35 37 34 29 14 15 15 9 8 6 6 6 7 7 9 9 9 9 9 8 11 8 7 7 7
6 8 7 7 7 8 8 9 9 11 14 14 17 22 25 31 33 32 34 27 15 15 13 15 14 12 8 4 5 5 5 5 6 7 8 9 9 9 9 8 8 7 7
6 5 5 6 6 8 8 8 8 10 11 12 14 21 18 31 31 29 27 11 13 13 13 14 15 14 8 4 3 4 6 6 6 6 7 8 8 9 8 7 7 9 8
4 7 6 6 7 7 7 8 9 9 11 11 11 12 14 17 15 15 12 12 11 11 12 13 14 13 8 4 1 4 5 6 7 6 7 7 7 7 7 8 8 8 6
4 5 7 5 4 6 7 8 9 9 10 11 11 11 27 14 12 12 12 12 11 11 12 12 12 12 10 4 3 2 4 4 5 6 6 6 7 7 6 6 6 6 6
3 5 4 5 6 7 7 8 8 9 9 10 12 12 25 9 10 10 11 11 10 10 9 10 10 10 10 9 6 3 2 3 4 4 5 6 6 6 6 6 6 6 7
3 4 5 5 4 8 8 7 8 9 10 10 10 11 11 10 10 10 11 10 10 9 9 8 8 9 9 9 8 7 5 3 2 4 5 6 6 6 6 7 7 6 6
3 4 5 6 5 7 7 9 9 10 10 10 10 10 11 11 11 12 11 10 9 9 8 7 7 9 8 8 7 7 6 5 4 4 5 5 5 6 5 6 6 7 6
3 4 4 6 7 7 8 8 9 9 10 10 10 9 11 11 11 11 10 10 9 8 9 8 6 8 8 9 8 8 9 9 6 5 3 4 5 6 5 5 6 6 6
4 5 5 5 5 5 7 9 9 10 10 10 10 10 11 11 11 10 10 10 9 10 9 7 7 9 9 6 7 8 6 5 3 3 2 3 3 3 4 5 8 5 6
Wind_Direction
9 359 2 1 0 359 354 335 324 321 324 324 323 316 310 302 292 283 282 284 273 276 251 234 246 233 234 219 203 219 227 188 237 221 184 170 179 184 185 182 198 194 179
351 351 360 359 1 359 356 348 345 341 329 324 317 311 304 298 293 283 286 283 266 272 269 250 257 246 235 229 213 219 221 204 215 236 164 172 190 190 174 175 183 191 180
336 353 1 3 359 355 354 345 343 337 336 330 327 320 315 307 301 284 267 276 269 266 266 260 262 240 247 242 227 227 220 212 190 175 174 150 129 185 163 168 171 169 183
335 354 3 358 353 347 336 332 328 332 332 333 327 317 314 311 303 293 285 284 280 273 268 261 259 247 248 245 232 231 227 215 206 195 165 157 160 179 188 171 171 162 180
348 13 8 354 348 337 338 338 337 334 327 322 320 321 318 318 314 313 299 289 283 279 272 265 258 253 249 240 239 234 219 217 213 208 190 155 168 163 195 185 167 164 168
359 8 3 355 346 341 339 334 331 331 334 328 325 319 319 316 313 308 301 294 288 282 281 277 268 258 252 245 236 236 215 212 217 210 208 208 200 190 183 187 155 166 199
2 2 359 350 340 339 336 338 340 335 331 328 322 319 314 313 314 310 306 296 291 285 279 277 277 269 257 250 243 241 237 228 224 215 220 217 202 190 171 173 183 189 212
360 358 347 338 337 342 340 338 337 332 329 319 316 315 311 311 315 314 312 303 294 288 281 276 272 273 265 245 246 241 233 230 230 224 224 231 208 171 177 182 179 159 89
354 346 338 341 343 342 336 333 330 323 316 316 315 315 309 311 319 321 321 310 300 296 291 283 275 274 272 267 246 251 246 238 235 230 220 216 203 186 182 157 167 167 160
343 333 335 344 341 333 329 328 318 312 315 314 311 311 311 311 320 326 329 318 311 307 302 295 285 273 272 266 255 247 246 238 210 200 194 204 195 198 190 187 176 186 152
327 333 342 338 333 326 326 321 318 318 316 318 317 319 317 318 320 325 326 319 311 305 302 304 298 293 282 269 260 245 244 246 203 189 172 158 156 161 159 344 205 192 171
335 346 336 330 334 329 326 321 323 321 325 325 322 320 320 320 320 323 323 323 318 310 295 292 293 297 291 274 262 251 243 233 181 175 165 160 151 140 117 105 88 74 33
347 331 329 327 326 329 327 323 320 327 325 323 322 319 319 323 321 324 322 320 318 313 300 293 288 289 292 281 256 249 240 189 177 181 178 165 151 125 116 106 85 84 77
337 333 331 331 328 324 319 315 317 318 319 315 320 318 316 318 323 323 321 319 318 314 308 298 291 282 284 272 254 244 234 175 177 166 141 116 115 122 127 119 127 120 98
335 324 326 322 314 311 307 310 308 303 303 316 313 312 320 318 317 320 323 320 315 308 309 297 290 286 277 259 242 231 145 142 142 136 143 143 141 138 133 132 133 132 123
330 324 315 308 312 311 313 310 306 312 317 318 319 321 317 312 319 323 320 322 323 320 310 296 288 278 262 253 201 137 149 159 160 153 158 155 157 156 150 151 155 145 132
300 300 304 310 310 313 313 316 319 320 319 324 324 325 321 322 326 323 328 326 330 329 323 326 339 309 273 247 177 179 175 175 161 158 159 155 153 151 151 156 151 147 146
296 295 290 296 300 306 307 308 309 315 319 320 325 323 329 330 328 331 332 335 326 334 329 323 318 311 282 225 197 177 158 153 158 150 150 150 152 153 154 158 161 156 149
300 291 292 301 300 301 303 310 311 312 314 315 322 328 336 328 325 336 334 327 325 325 325 323 317 313 284 240 201 164 154 155 146 142 146 148 150 151 154 154 153 151 145
269 284 314 309 313 311 313 316 317 319 321 321 320 318 320 318 337 332 332 328 327 324 325 326 324 322 325 338 91 125 127 138 141 141 145 146 148 151 152 151 152 153 159
298 308 304 297 284 306 310 315 318 314 308 307 307 310 317 332 320 319 320 323 323 324 324 329 330 333 336 349 14 90 126 139 151 144 147 148 146 146 142 144 145 145 142
288 292 288 291 306 313 313 307 302 301 302 305 308 310 320 317 312 313 313 314 317 317 320 325 334 341 343 350 354 13 62 105 118 123 128 132 136 136 140 141 144 143 145
284 289 307 303 287 303 309 303 301 303 303 303 304 308 315 313 311 311 310 311 314 318 323 330 335 344 350 353 359 5 29 42 77 125 134 137 139 140 144 147 149 146 151
302 312 301 302 306 308 302 305 304 298 297 301 306 308 310 310 309 307 309 311 314 315 321 327 332 340 349 356 358 1 8 17 33 74 117 132 130 140 141 144 154 155 154
314 309 306 299 302 301 300 297 297 300 302 305 305 305 306 307 309 311 312 313 313 314 319 323 328 333 343 351 358 1 2 22 32 43 51 90 127 141 142 144 145 141 135
307 292 278 275 272 284 296 301 304 304 303 305 305 304 305 307 309 311 313 315 316 316 314 315 318 326 333 338 341 342 342 346 32 47 61 101 123 126 132 139 147 151 149